• In Belgium
  • List of Countries
  • For 7 days
  • Water Temperature
  • Satellite Maps
  • Weather Map
  • Weather Widgets
  • user-avatar
    Login

    Hourly Weather Brentwood

    Today, 15 November, Thursday

    Time Temperature Precipitation Wind Pressure Humidity
    00:00 +12°C° 0 mm 1 mps 766 mmHg 30%
    01:00 +11°C° 0 mm 1 mps 765 mmHg 31%
    02:00 +11°C° 0 mm 1 mps 765 mmHg 31%
    03:00 +11°C° 0 mm 1 mps 765 mmHg 31%
    04:00 +11°C° 0 mm 1 mps 764 mmHg 32%
    05:00 +10°C° 0 mm 1 mps 764 mmHg 32%
    06:00 +10°C° 0 mm 1 mps 764 mmHg 32%
    07:00 +10°C° 0 mm 1 mps 764 mmHg 33%
    08:00 +12°C° 0 mm 1 mps 764 mmHg 29%
    09:00 +15°C° 0 mm 1 mps 764 mmHg 26%
    10:00 +18°C° 0 mm 1 mps 763 mmHg 22%
    11:00 +20°C° 0 mm 1 mps 763 mmHg 20%
    12:00 +22°C° 0 mm 1 mps 762 mmHg 18%
    13:00 +23°C° 0 mm 1 mps 762 mmHg 16%
    14:00 +23°C° 0 mm 1 mps 762 mmHg 17%
    15:00 +22°C° 0 mm 1 mps 761 mmHg 18%
    16:00 +22°C° 0 mm 1 mps 761 mmHg 19%
    17:00 +20°C° 0 mm 1 mps 761 mmHg 21%
    18:00 +16°C° 0 mm 0 mps 761 mmHg 23%
    19:00 +15°C° 0 mm 0 mps 762 mmHg 25%
    20:00 +14°C° 0 mm 0 mps 762 mmHg 26%
    21:00 +14°C° 0 mm 0 mps 762 mmHg 26%
    22:00 +13°C° 0 mm 0 mps 762 mmHg 27%
    23:00 +13°C° 0 mm 0 mps 761 mmHg 27%

    Tomorrow, 16 November, Friday

    Time Temperature Precipitation Wind Pressure Humidity
    00:00 +13°C° 0 mm 0 mps 761 mmHg 28%
    01:00 +12°C° 0 mm 0 mps 761 mmHg 28%
    02:00 +13°C° 0 mm 1 mps 761 mmHg 29%
    03:00 +12°C° 0 mm 1 mps 761 mmHg 29%
    04:00 +12°C° 0 mm 1 mps 761 mmHg 30%
    05:00 +12°C° 0 mm 1 mps 761 mmHg 31%
    06:00 +11°C° 0 mm 1 mps 761 mmHg 31%
    07:00 +11°C° 0 mm 1 mps 761 mmHg 32%
    08:00 +13°C° 0 mm 1 mps 761 mmHg 28%
    09:00 +16°C° 0 mm 1 mps 761 mmHg 25%
    10:00 +19°C° 0 mm 1 mps 761 mmHg 21%
    11:00 +21°C° 0 mm 1 mps 760 mmHg 19%
    12:00 +22°C° 0 mm 1 mps 760 mmHg 18%
    13:00 +24°C° 0 mm 1 mps 760 mmHg 16%
    14:00 +24°C° 0 mm 1 mps 759 mmHg 17%
    15:00 +23°C° 0 mm 1 mps 759 mmHg 18%
    16:00 +23°C° 0 mm 1 mps 759 mmHg 19%
    17:00 +19°C° 0 mm 0 mps 759 mmHg 20%
    18:00 +17°C° 0 mm 0 mps 759 mmHg 22%
    19:00 +15°C° 0 mm 0 mps 760 mmHg 24%
    20:00 +15°C° 0 mm 0 mps 760 mmHg 25%
    21:00 +14°C° 0 mm 0 mps 760 mmHg 26%
    22:00 +14°C° 0 mm 0 mps 760 mmHg 26%
    23:00 +13°C° 0 mm 0 mps 760 mmHg 27%

    Day after tomorrow, 17 November, Saturday

    Time Temperature Precipitation Wind Pressure Humidity
    00:00 +13°C° 0 mm 0 mps 760 mmHg 28%
    01:00 +13°C° 0 mm 0 mps 761 mmHg 29%
    02:00 +12°C° 0 mm 0 mps 761 mmHg 29%
    03:00 +12°C° 0 mm 0 mps 761 mmHg 30%
    04:00 +11°C° 0 mm 0 mps 760 mmHg 30%
    05:00 +11°C° 0 mm 0 mps 761 mmHg 31%
    06:00 +11°C° 0 mm 0 mps 761 mmHg 31%
    07:00 +11°C° 0 mm 1 mps 761 mmHg 32%
    08:00 +14°C° 0 mm 1 mps 761 mmHg 28%
    09:00 +16°C° 0 mm 1 mps 761 mmHg 25%
    10:00 +19°C° 0 mm 1 mps 762 mmHg 22%
    11:00 +21°C° 0 mm 1 mps 761 mmHg 20%
    12:00 +22°C° 0 mm 1 mps 761 mmHg 18%
    13:00 +24°C° 0 mm 1 mps 761 mmHg 17%
    14:00 +23°C° 0 mm 1 mps 761 mmHg 18%
    15:00 +23°C° 0 mm 1 mps 761 mmHg 19%
    16:00 +22°C° 0 mm 1 mps 760 mmHg 20%
    17:00 +21°C° 0 mm 1 mps 761 mmHg 22%
    18:00 +19°C° 0 mm 1 mps 761 mmHg 24%
    19:00 +15°C° 0 mm 0 mps 761 mmHg 27%
    20:00 +15°C° 0 mm 0 mps 762 mmHg 28%
    21:00 +14°C° 0 mm 0 mps 762 mmHg 29%
    22:00 +15°C° 0 mm 1 mps 762 mmHg 30%
    23:00 +13°C° 0 mm 0 mps 762 mmHg 31%

    18 November, Sunday

    Time Temperature Precipitation Wind Pressure Humidity
    00:00 +13°C° 0 mm 0 mps 762 mmHg 32%
    01:00 +12°C° 0 mm 0 mps 762 mmHg 33%
    02:00 +12°C° 0 mm 0 mps 762 mmHg 33%
    03:00 +13°C° 0 mm 1 mps 762 mmHg 33%
    04:00 +13°C° 0 mm 1 mps 762 mmHg 33%
    05:00 +12°C° 0 mm 1 mps 762 mmHg 34%
    06:00 +12°C° 0 mm 1 mps 763 mmHg 34%
    07:00 +12°C° 0 mm 1 mps 763 mmHg 34%
    08:00 +14°C° 0 mm 1 mps 763 mmHg 31%
    09:00 +16°C° 0 mm 1 mps 763 mmHg 27%
    10:00 +19°C° 0 mm 1 mps 763 mmHg 24%
    11:00 +20°C° 0 mm 1 mps 763 mmHg 22%
    12:00 +22°C° 0 mm 1 mps 762 mmHg 20%
    13:00 +24°C° 0 mm 1 mps 762 mmHg 18%
    14:00 +23°C° 0 mm 1 mps 761 mmHg 19%
    15:00 +23°C° 0 mm 1 mps 761 mmHg 20%
    16:00 +22°C° 0 mm 1 mps 761 mmHg 21%
    17:00 +21°C° 0 mm 1 mps 761 mmHg 23%
    18:00 +19°C° 0 mm 1 mps 761 mmHg 25%
    19:00 +15°C° 0 mm 0 mps 762 mmHg 27%
    20:00 +15°C° 0 mm 0 mps 762 mmHg 28%
    21:00 +14°C° 0 mm 0 mps 762 mmHg 28%
    22:00 +14°C° 0 mm 0 mps 762 mmHg 29%
    23:00 +14°C° 0 mm 0 mps 762 mmHg 30%

    19 November, Monday

    Time Temperature Precipitation Wind Pressure Humidity
    00:00 +14°C° 0 mm 1 mps 762 mmHg 30%
    01:00 +14°C° 0 mm 1 mps 762 mmHg 31%
    02:00 +13°C° 0 mm 1 mps 762 mmHg 32%
    03:00 +13°C° 0 mm 1 mps 762 mmHg 33%
    04:00 +13°C° 0 mm 1 mps 761 mmHg 34%
    05:00 +12°C° 0 mm 1 mps 761 mmHg 35%
    06:00 +12°C° 0 mm 1 mps 761 mmHg 36%
    07:00 +12°C° 0 mm 1 mps 761 mmHg 37%
    08:00 +14°C° 0 mm 1 mps 761 mmHg 35%
    09:00 +15°C° 0 mm 1 mps 761 mmHg 33%
    10:00 +18°C° 0 mm 1 mps 761 mmHg 30%
    11:00 +19°C° 0 mm 1 mps 761 mmHg 28%
    12:00 +20°C° 0 mm 1 mps 760 mmHg 26%
    13:00 +21°C° 0 mm 1 mps 760 mmHg 24%
    14:00 +21°C° 0 mm 1 mps 760 mmHg 26%
    15:00 +20°C° 0 mm 1 mps 760 mmHg 27%
    16:00 +18°C° 0 mm 0 mps 760 mmHg 28%
    17:00 +17°C° 0 mm 0 mps 760 mmHg 29%
    18:00 +16°C° 0 mm 0 mps 760 mmHg 31%
    19:00 +15°C° 0 mm 0 mps 760 mmHg 32%
    20:00 +15°C° 0 mm 0 mps 760 mmHg 32%
    21:00 +15°C° 0 mm 1 mps 760 mmHg 33%
    22:00 +15°C° 0 mm 1 mps 760 mmHg 34%
    23:00 +14°C° 0 mm 1 mps 760 mmHg 35%

    20 November, Tuesday

    Time Temperature Precipitation Wind Pressure Humidity
    00:00 +14°C° 0 mm 1 mps 760 mmHg 36%
    01:00 +14°C° 0 mm 1 mps 760 mmHg 37%
    02:00 +13°C° 0 mm 1 mps 760 mmHg 38%
    03:00 +13°C° 0 mm 1 mps 760 mmHg 39%
    04:00 +12°C° 0 mm 0 mps 760 mmHg 39%
    05:00 +11°C° 0 mm 0 mps 760 mmHg 40%
    06:00 +11°C° 0 mm 0 mps 761 mmHg 41%
    07:00 +11°C° 0 mm 0 mps 761 mmHg 42%
    08:00 +13°C° 0 mm 0 mps 761 mmHg 38%
    09:00 +15°C° 0 mm 0 mps 761 mmHg 33%
    10:00 +18°C° 0 mm 0 mps 761 mmHg 29%
    11:00 +19°C° 0 mm 0 mps 761 mmHg 27%
    12:00 +22°C° 0 mm 1 mps 760 mmHg 25%
    13:00 +23°C° 0 mm 1 mps 760 mmHg 22%
    14:00 +23°C° 0 mm 1 mps 760 mmHg 23%
    15:00 +22°C° 0 mm 1 mps 760 mmHg 25%
    16:00 +22°C° 0 mm 1 mps 760 mmHg 26%
    17:00 +20°C° 0 mm 1 mps 760 mmHg 30%
    18:00 +19°C° 0 mm 1 mps 761 mmHg 34%
    19:00 +16°C° 0 mm 1 mps 761 mmHg 38%
    20:00 +15°C° 0 mm 1 mps 762 mmHg 41%
    21:00 +15°C° 0 mm 1 mps 762 mmHg 44%
    22:00 +14°C° 0 mm 1 mps 762 mmHg 47%
    23:00 +14°C° 0 mm 1 mps 762 mmHg 49%
    Show more